Regional Weather Roundup
Issued by NWS Cleveland, OH

Home | Current Version | Previous Version | Graphics & Text | Print | Product List | Glossary On
Versions: 1 2 3 4 5 6 7 8 9 10 11 12 13 14 15 16 17 18 19 20 21 22 23 24 25 26 27 28 29 30 31 32 33 34 35 36 37 38 39 40 41 42 43 44 45 46 47 48 49 50
000
ASUS41 KCLE 280110
RWRCLE
OHIO REGIONAL WEATHER ROUNDUP
NATIONAL WEATHER SERVICE CLEVELAND, OH
900 PM EDT WED AUG 27 2014

NOTE: "FAIR" INDICATES FEW OR NO CLOUDS BELOW 12,000 FEET WITH NO
SIGNIFICANT WEATHER AND/OR OBSTRUCTIONS TO VISIBILITY.

OHZ001>008-015>018-024>027-034-035-043-044-280200-
   NORTHWEST OHIO

CITY           SKY/WX    TMP DP  RH WIND       PRES   REMARKS
DEFIANCE       MOCLDY    73  60  63 N8        30.08R
FINDLAY        MOCLDY    74  65  73 NE9       30.07R
TOLEDO EXPRESS CLOUDY    71  59  65 N7        30.08R
TOLEDO EXEC    CLOUDY    72  63  73 NE3       30.09R
LIMA           PTCLDY    73  63  70 N3        30.07R
$$

OHZ009>014-019>023-028>033-038-089-280200-
   NORTHEAST OHIO

CITY           SKY/WX    TMP DP  RH WIND       PRES   REMARKS
CLE-HOPKINS    MOCLDY    69  62  78 NE5       30.09R
CLE-LAKEFRONT  MOCLDY    71  62  73 N9        30.06R
CUY CO. ARPT   MOCLDY    70  57  64 N16       30.08S
LORAIN-ELYRIA  MOCLDY    70  62  76 N5        30.09R
ASHTABULA      MOCLDY    66  59  78 N6        30.09R
AKRON-CANTON   MOCLDY    69  60  73 N7        30.08R
WOOSTER        MOCLDY    68  61  78 N6        30.09R
MANSFIELD      MOCLDY    68  62  81 N6        30.10R
YOUNGSTOWN     MOCLDY    66  59  78 N8        30.08R
$$

OHZ042-051>053-060>062-070>072-077>081-280200-
  SOUTHWEST OHIO

CITY           SKY/WX    TMP DP  RH WIND       PRES   REMARKS
CINC-COVINGTON MOCLDY    83  70  64 N7        30.04R
CINC-LUNKEN    PTCLDY    83  71  67 N6        30.03R
HAMILTON       PTCLDY    80  72  76 N5        30.05R
DAYTON         PTCLDY    78  69  73 N8        30.08R
WRIGHT-PAT AFB CLEAR     79  71  76 N7        30.06R
DAYTON GENERAL CLEAR     79  70  74 N7        30.05R
WILMINGTON     PTCLDY    79  70  74 N9        30.05R
$$

OHZ036-037-039>041-045>050-054>059-063>069-073>076-082>088-280200-
  CENTRAL AND SOUTHEAST OHIO

CITY           SKY/WX    TMP DP  RH WIND       PRES   REMARKS
COLUMBUS       PTCLDY    80  69  69 N7        30.03R
OSU AIRPORT    CLEAR     75  69  81 N8        30.05R
BOLTON FIELD   CLEAR     76  70  82 NW7       30.05R
RICKENBACK AFB CLEAR     80  65  61 N8        30.03R
NEWARK         CLEAR     77  69  76 N5        30.04R
MARION         PTCLDY    70  64  81 NE8       30.08R
LANCASTER      CLEAR     74  71  91 NW3       30.04R
ZANESVILLE     PTCLDY    76  68  76 N7        30.04R
NEW PHILLY     CLOUDY    73  66  78 N7        30.06R
$$



USA.gov is the U.S. government's official web portal to all federal, state and local government web resources and services.